[[{"header":{"parameterUnit":"m.s-1","parameterCategory":1,"la1":30.2991,"la2":30.254,"lo1":-89.0895,"lo2":-89.0444,"dy":0.0017,"dx":0.0017,"nx":28,"ny":28,"refTime":"2024-05-11T03:00:00:Z","depth":0,"parameterNumber":2,"parameterNumberName":"U-component_of_WINDS"},"data":[0,0,0,0,0,0,0,0,0,0,0,0,0,0,0,0,0,0,0,0,0,0,0,0,0,0,0,0,0,0,0,0,0,0,0,0,0,0,0,0,0,0,0,0,0,0,0,0,0,0,0,0,0,0,0,0,0,0,-0.7252,-0.7251,0,-0.7165,-0.7164,-0.7163,-0.7085,-0.7084,-0.7083,-0.7082,-0.6993,-0.6991,-0.699,0,0,0,0,0,0,0,0,0,0,0,0,0,-0.735,-0.7349,-0.7252,-0.7251,-0.7249,-0.7165,-0.7164,-0.7162,-0.7085,-0.7084,-0.7083,-0.7081,-0.6993,-0.6991,-0.699,0,0,0,0,0,0,0,0,0,0,0,0,0,-0.729,-0.7348,-0.7252,-0.7201,-0.7195,-0.7165,-0.7163,-0.7162,-0.7085,-0.7084,-0.7082,-0.7081,-0.6994,-0.6992,-0.6989,-0.7003,0,0,-0.6982,-0.6981,0,0,0,0,0,0,0,0,-0.7293,-0.7286,-0.7209,-0.7204,-0.7198,-0.7134,-0.7165,-0.7109,-0.7085,-0.7127,-0.7082,-0.708,-0.7041,-0.7035,-0.7021,-0.6999,-0.6995,-0.6982,-0.6981,-0.698,-0.6979,0,0,0,0,0,0,0,-0.7297,-0.7289,-0.7217,-0.7208,-0.7201,-0.7182,-0.7172,-0.7154,-0.7093,-0.7123,-0.7117,-0.7108,-0.7037,-0.7024,-0.7019,-0.6994,-0.6982,-0.698,-0.6979,-0.6978,-0.6978,-0.6979,0,0,0,0,0,0,-0.731,-0.7293,-0.722,-0.7214,-0.7243,-0.7181,-0.717,-0.7156,-0.7093,-0.7082,-0.7109,-0.7105,-0.7028,-0.7021,-0.7015,-0.7028,-0.698,-0.6978,-0.6976,-0.6977,-0.6978,-0.698,0,0,0,0,0,0,-0.7312,-0.7304,-0.7223,-0.7252,-0.7241,-0.7181,-0.7166,-0.7155,-0.7141,-0.7082,-0.7071,-0.7107,-0.7027,-0.7018,-0.7007,-0.7023,-0.6977,-0.6975,-0.6975,-0.6977,-0.6979,-0.7052,0,0,0,0,0,0,-0.7315,-0.7305,-0.731,-0.7253,-0.7239,-0.7217,-0.7167,-0.7154,-0.7137,-0.7131,-0.7077,-0.7066,-0.7025,-0.701,-0.7004,-0.7019,-0.6973,-0.6973,-0.6976,-0.6978,-0.7048,-0.7057,-0.7064,0,0,0,0,0,-0.7319,-0.7334,-0.7311,-0.7302,-0.7244,-0.7218,-0.721,-0.7162,-0.7139,-0.7143,-0.7105,-0.7068,-0.7022,-0.701,-0.7002,-0.7017,-0.6972,-0.6975,-0.6978,-0.7045,-0.7055,-0.7064,0,0,0,0,0,0,-0.7394,-0.7325,-0.7299,-0.7296,-0.7263,-0.7205,-0.7209,-0.7175,-0.7148,-0.7143,-0.7085,-0.7073,-0.7068,-0.7041,-0.7028,-0.7027,-0.6992,-0.6994,-0.7045,-0.7055,-0.7062,-0.707,-0.6971,0,0,0,0,0,-0.741,-0.7395,-0.7335,-0.7339,-0.7324,-0.7269,-0.7256,-0.7222,-0.7186,-0.7172,-0.7133,-0.7099,-0.7077,-0.7064,-0.704,-0.7043,-0.7031,-0.705,-0.7058,-0.7064,-0.7067,-0.7067,-0.7075,-0.699,-0.699,-0.699,0,0,-0.7444,-0.7404,-0.7398,-0.7353,-0.7324,-0.7309,-0.7258,-0.7245,-0.7233,-0.717,-0.7157,-0.7127,-0.7085,-0.7082,-0.7078,-0.7059,-0.7088,-0.7068,-0.7074,-0.7073,-0.7071,-0.7079,-0.7087,-0.6992,-0.6992,-0.6991,0,0,-0.7498,-0.7466,-0.7465,-0.7437,-0.7394,-0.7357,-0.7357,-0.7303,-0.7281,-0.7267,-0.7219,-0.7205,-0.7168,-0.714,-0.7122,-0.7165,-0.713,-0.7159,-0.72,-0.7201,-0.7208,-0.7214,-0.723,-0.7237,-0.7161,-0.7161,-0.7161,0,-0.7545,-0.7521,-0.7469,-0.7459,-0.7441,-0.7382,-0.7381,-0.7356,-0.7307,-0.7296,-0.7275,-0.7228,-0.7196,-0.7185,-0.7195,-0.7182,-0.718,-0.7165,-0.7211,-0.7216,-0.7221,-0.7236,-0.7242,-0.7165,-0.7165,-0.7164,-0.7164,0,-0.7582,-0.7566,-0.7571,-0.7525,-0.7507,-0.7502,-0.7449,-0.7437,-0.7404,-0.737,-0.7357,-0.7316,-0.7283,-0.7278,-0.7246,-0.7262,-0.7252,-0.7222,-0.7186,-0.7234,-0.7247,-0.7253,-0.7171,-0.7169,-0.7168,-0.7167,0,0,-0.7682,-0.7608,-0.761,-0.7589,-0.7537,-0.7523,-0.7515,-0.7483,-0.7474,-0.7442,-0.7434,-0.7404,-0.7376,-0.7355,-0.7319,-0.732,-0.7358,-0.7289,-0.7288,-0.7305,-0.7375,-0.74,-0.7407,-0.7334,-0.7335,-0.7335,-0.7379,0,-0.7728,-0.7711,-0.7663,-0.766,-0.7645,-0.7589,-0.7582,-0.7549,-0.7516,-0.7499,-0.7462,-0.7443,-0.7407,-0.7394,-0.7392,-0.7354,-0.7372,-0.735,-0.7327,-0.7326,-0.7341,-0.7414,-0.7439,-0.7483,-0.7384,-0.7385,-0.7385,0,-0.778,-0.7752,-0.7748,-0.7696,-0.7688,-0.7683,-0.765,-0.7633,-0.7595,-0.7571,-0.7548,-0.7508,-0.7496,-0.7462,-0.7445,-0.7432,-0.7419,-0.7399,-0.7399,-0.7397,-0.736,-0.7415,-0.7495,-0.7503,-0.7393,-0.7392,-0.7392,0,-0.7856,-0.7816,-0.7809,-0.7792,-0.7731,-0.7729,-0.7703,-0.7663,-0.7647,-0.7618,-0.7607,-0.7578,-0.7562,-0.7539,-0.7493,-0.7472,-0.7482,-0.7443,-0.7462,-0.7464,-0.7468,-0.7469,-0.755,-0.7458,-0.7458,-0.7458,-0.7458,0,-0.7913,-0.7913,-0.7842,-0.7838,-0.7836,-0.7781,-0.7781,-0.775,-0.7714,-0.7703,-0.7651,-0.7642,-0.758,-0.7563,-0.7526,-0.7519,-0.7511,-0.7492,-0.7483,-0.7498,-0.7501,-0.749,-0.7487,-0.7459,-0.7459,-0.7459,-0.7458,0,-0.7998,-0.795,-0.7938,-0.7882,-0.7867,-0.7869,-0.782,-0.7813,-0.7777,-0.7764,-0.7757,-0.7701,-0.7679,-0.763,-0.7594,-0.7569,-0.7571,-0.7553,-0.7585,-0.7579,-0.7602,-0.7601,-0.768,-0.7688,-0.759,-0.7591,-0.7592,0,-0.8039,-0.8038,-0.7981,-0.7969,-0.7946,-0.7928,-0.7912,-0.7857,-0.7842,-0.7798,-0.7797,-0.7771,-0.7747,-0.7714,-0.767,-0.7642,-0.7624,-0.7653,-0.762,-0.7635,-0.7626,-0.7628,-0.7628,-0.7662,-0.7663,-0.7664,-0.7665,0,-0.8117,-0.8093,-0.8072,-0.8042,-0.8024,-0.7997,-0.7968,-0.7962,-0.79,-0.7886,-0.7863,-0.7844,-0.7807,-0.7782,-0.7748,-0.7721,-0.7684,-0.7676,-0.7679,-0.7696,-0.7715,-0.7706,-0.7607,-0.7675,-0.7674,-0.7673,-0.7673,-0.7672,-0.8182,-0.8178,-0.8138,-0.8116,-0.8088,-0.8062,-0.8053,-0.8016,-0.7996,-0.7962,-0.7931,-0.7911,-0.7872,-0.7822,-0.7798,-0.7781,-0.7762,-0.7767,-0.7768,-0.7771,-0.7778,-0.7716,-0.7775,-0.7774,-0.7774,-0.7774,-0.7773,0,-0.8259,-0.823,-0.821,-0.8171,-0.8153,-0.8118,-0.8084,-0.8072,-0.8055,-0.8022,-0.7999,-0.7972,-0.7948,-0.7902,-0.7873,-0.7868,-0.785,-0.7863,-0.7864,-0.7858,-0.7796,-0.7796,-0.7878,-0.7878,-0.7878,-0.7878,-0.7878,-0.7878,-0.8297,-0.829,-0.8261,-0.8239,-0.821,-0.819,-0.8174,-0.8149,-0.8123,-0.8095,-0.8075,-0.8044,-0.8006,-0.7974,-0.795,-0.7937,-0.7929,-0.7948,-0.793,-0.7872,-0.7863,-0.7853,-0.7854,-0.7946,-0.7946,-0.7994,-0.7994,-0.7995]},{"header":{"parameterUnit":"m.s-1","parameterCategory":1,"la1":30.2991,"la2":30.254,"lo1":-89.0895,"lo2":-89.0444,"dy":0.0017,"dx":0.0017,"nx":28,"ny":28,"refTime":"2024-05-11T03:00:00:Z","depth":0,"parameterNumber":3,"parameterNumberName":"V-component_of_WINDS"},"data":[0,0,0,0,0,0,0,0,0,0,0,0,0,0,0,0,0,0,0,0,0,0,0,0,0,0,0,0,0,0,0,0,0,0,0,0,0,0,0,0,0,0,0,0,0,0,0,0,0,0,0,0,0,0,0,0,0,0,-1.0905,-1.0906,0,-1.094,-1.094,-1.094,-1.0954,-1.0954,-1.0954,-1.0954,-1.0988,-1.0989,-1.099,0,0,0,0,0,0,0,0,0,0,0,0,0,-1.0852,-1.0853,-1.0905,-1.0906,-1.0906,-1.094,-1.094,-1.094,-1.0954,-1.0954,-1.0954,-1.0954,-1.0988,-1.0989,-1.0991,0,0,0,0,0,0,0,0,0,0,0,0,0,-1.0879,-1.0853,-1.0905,-1.0917,-1.0918,-1.0939,-1.094,-1.0941,-1.0954,-1.0954,-1.0954,-1.0954,-1.0988,-1.0989,-1.0991,-1.1002,0,0,-1.0995,-1.0996,0,0,0,0,0,0,0,0,-1.0878,-1.0881,-1.0915,-1.0916,-1.0918,-1.0942,-1.0934,-1.0961,-1.0954,-1.0941,-1.0954,-1.0954,-1.0973,-1.0976,-1.0983,-1.1004,-1.1005,-1.0995,-1.0996,-1.0997,-1.0997,0,0,0,0,0,0,0,-1.0876,-1.088,-1.0919,-1.0915,-1.0917,-1.0921,-1.0924,-1.0939,-1.0957,-1.0942,-1.0943,-1.0947,-1.0974,-1.0981,-1.0984,-1.1006,-1.0995,-1.0997,-1.0998,-1.0998,-1.1041,-1.1041,0,0,0,0,0,0,-1.0872,-1.0878,-1.0918,-1.092,-1.0897,-1.0922,-1.0926,-1.0935,-1.0957,-1.096,-1.0947,-1.0947,-1.0979,-1.0982,-1.0985,-1.1001,-1.0997,-1.0998,-1.0999,-1.104,-1.1041,-1.1041,0,0,0,0,0,0,-1.0871,-1.0875,-1.0916,-1.0899,-1.0905,-1.0923,-1.0932,-1.0935,-1.0943,-1.0961,-1.0964,-1.0951,-1.0979,-1.0983,-1.0998,-1.1003,-1.0999,-1.1,-1.104,-1.104,-1.1041,-1.1034,0,0,0,0,0,0,-1.0869,-1.0875,-1.0879,-1.0899,-1.0906,-1.0929,-1.0933,-1.0936,-1.0945,-1.0946,-1.0965,-1.0969,-1.0979,-1.0996,-1.1,-1.1005,-1.1002,-1.104,-1.104,-1.1041,-1.1033,-1.1034,-1.1034,0,0,0,0,0,-1.0867,-1.0875,-1.0879,-1.0884,-1.0912,-1.0929,-1.0933,-1.0945,-1.0945,-1.095,-1.0962,-1.0968,-1.1001,-1.0998,-1.1002,-1.1007,-1.104,-1.104,-1.1041,-1.1033,-1.1034,-1.1034,0,0,0,0,0,0,-1.0854,-1.0878,-1.0883,-1.0898,-1.0911,-1.0932,-1.0938,-1.0944,-1.0958,-1.0958,-1.0972,-1.0977,-1.0991,-1.1001,-1.0996,-1.1021,-1.1021,-1.1022,-1.1014,-1.1014,-1.1014,-1.1012,-1.1003,0,0,0,0,0,-1.0853,-1.0866,-1.0886,-1.0897,-1.0904,-1.092,-1.0928,-1.0936,-1.0951,-1.0956,-1.097,-1.0984,-1.0998,-1.1006,-1.102,-1.1035,-1.104,-1.1041,-1.1041,-1.1041,-1.1042,-1.1052,-1.1053,-1.1043,-1.1043,-1.1043,0,0,-1.0851,-1.0866,-1.0873,-1.0895,-1.0906,-1.0919,-1.0924,-1.0937,-1.0947,-1.0958,-1.0974,-1.0985,-1.1001,-1.1017,-1.1025,-1.1025,-1.1046,-1.1041,-1.1041,-1.1043,-1.1053,-1.1054,-1.1055,-1.1043,-1.1043,-1.1043,0,0,-1.0854,-1.0866,-1.0877,-1.0889,-1.0907,-1.0918,-1.0921,-1.094,-1.0948,-1.0964,-1.0973,-1.0985,-1.1009,-1.1021,-1.103,-1.1039,-1.1045,-1.1043,-1.1044,-1.1054,-1.1055,-1.1055,-1.106,-1.1061,-1.1044,-1.1044,-1.1044,0,-1.0849,-1.0869,-1.0882,-1.0895,-1.0906,-1.0917,-1.0929,-1.094,-1.0961,-1.0968,-1.0968,-1.0999,-1.1011,-1.103,-1.1033,-1.104,-1.1044,-1.1041,-1.1053,-1.1054,-1.1055,-1.106,-1.1061,-1.1044,-1.1044,-1.1044,-1.1044,0,-1.0863,-1.0877,-1.0884,-1.0905,-1.0916,-1.0928,-1.0944,-1.0953,-1.0961,-1.0972,-1.0989,-1.1004,-1.1022,-1.1027,-1.1034,-1.1048,-1.1048,-1.1051,-1.1051,-1.1056,-1.1061,-1.1062,-1.1044,-1.1044,-1.1044,-1.1044,0,0,-1.0858,-1.0887,-1.089,-1.0901,-1.0922,-1.0933,-1.0947,-1.0965,-1.0973,-1.0987,-1.1,-1.102,-1.1023,-1.1034,-1.1042,-1.1051,-1.1059,-1.1053,-1.1054,-1.1055,-1.1077,-1.1076,-1.1077,-1.1063,-1.1064,-1.1064,-1.1076,0,-1.0864,-1.0889,-1.0902,-1.0922,-1.0936,-1.0948,-1.096,-1.0974,-1.0985,-1.0999,-1.1011,-1.1025,-1.1028,-1.1034,-1.1043,-1.1056,-1.1064,-1.1055,-1.1076,-1.1076,-1.1072,-1.108,-1.1078,-1.1089,-1.1078,-1.1078,-1.1079,0,-1.0875,-1.0891,-1.0912,-1.0934,-1.094,-1.0951,-1.0969,-1.0982,-1.0999,-1.1006,-1.1019,-1.1028,-1.1043,-1.1043,-1.1065,-1.1059,-1.1068,-1.1075,-1.1076,-1.1079,-1.1078,-1.1084,-1.1092,-1.1094,-1.1081,-1.1081,-1.1081,0,-1.0871,-1.0897,-1.0914,-1.0923,-1.0948,-1.0955,-1.0966,-1.0983,-1.0994,-1.101,-1.1017,-1.1034,-1.1044,-1.1058,-1.1071,-1.1069,-1.1092,-1.1093,-1.11,-1.1099,-1.1104,-1.1104,-1.1116,-1.1109,-1.1109,-1.1109,-1.1109,0,-1.0877,-1.089,-1.0913,-1.0923,-1.0938,-1.0953,-1.0968,-1.098,-1.0995,-1.1009,-1.1019,-1.1032,-1.1048,-1.1063,-1.1073,-1.1091,-1.1095,-1.1102,-1.1105,-1.1102,-1.1101,-1.1108,-1.1108,-1.1109,-1.1109,-1.1109,-1.1109,0,-1.0875,-1.0891,-1.091,-1.0933,-1.0939,-1.0949,-1.0969,-1.098,-1.0992,-1.1009,-1.1013,-1.1032,-1.105,-1.1065,-1.1088,-1.1095,-1.1114,-1.1116,-1.1108,-1.111,-1.1117,-1.1116,-1.1134,-1.1137,-1.1127,-1.1127,-1.1127,0,-1.0878,-1.0889,-1.0914,-1.0924,-1.0935,-1.095,-1.0962,-1.0977,-1.0989,-1.101,-1.1019,-1.1038,-1.1053,-1.1081,-1.1097,-1.1115,-1.1119,-1.1124,-1.1122,-1.1119,-1.1121,-1.112,-1.1122,-1.1124,-1.1124,-1.1124,-1.1124,0,-1.0883,-1.0891,-1.0907,-1.0927,-1.094,-1.0956,-1.0972,-1.0979,-1.0998,-1.101,-1.1029,-1.1042,-1.1066,-1.1085,-1.1105,-1.1116,-1.1124,-1.1125,-1.1128,-1.1125,-1.112,-1.1124,-1.111,-1.1125,-1.1125,-1.1125,-1.1125,-1.1125,-1.0885,-1.0896,-1.0915,-1.0933,-1.0947,-1.0963,-1.0975,-1.0989,-1.1005,-1.1026,-1.1034,-1.1054,-1.1073,-1.1101,-1.1112,-1.1128,-1.1129,-1.1133,-1.1134,-1.1135,-1.1135,-1.1117,-1.1132,-1.1132,-1.1132,-1.1132,-1.1132,0,-1.0891,-1.0905,-1.0922,-1.0945,-1.0959,-1.0966,-1.0984,-1.0996,-1.1013,-1.103,-1.1046,-1.1069,-1.1087,-1.1105,-1.1125,-1.1134,-1.1138,-1.1139,-1.1139,-1.1142,-1.1132,-1.1129,-1.1136,-1.1136,-1.1136,-1.1136,-1.1136,-1.1136,-1.0897,-1.0916,-1.0926,-1.0952,-1.0966,-1.0986,-1.0996,-1.1011,-1.1024,-1.1049,-1.1065,-1.1077,-1.1095,-1.1116,-1.1134,-1.1139,-1.1146,-1.1146,-1.1152,-1.1143,-1.1142,-1.1142,-1.1138,-1.1147,-1.1147,-1.116,-1.116,-1.1161]}]]